Location: Garbet
(42.8837°N, 1.2115°E)
Time: 15:08:57
(UTC+00:00)

CZ-2D R/B - Pass Details

Date: 13 December 2025
Orbit: 525 x 597 km, 98.0° (Epoch: 19 January)

Event Time Altitude Azimuth Distance (km) Brightness Sun altitude
Rises 17:27:17 0° 138° (SE) 2,825 6.7 -11.7°
Reaches altitude 10° 17:29:41 10° 126° (SE) 1,922 5.8 -12.1°
Maximum altitude 17:33:13 27° 68° (ENE) 1,139 4.3 -12.7°
Drops below altitude 10° 17:36:43 10° 11° (N) 1,908 5.8 -13.3°
Sets 17:39:05 0° 359° (N) 2,800 6.7 -13.7°
